Location: Grand Rapids
(42.9630°N, 85.6680°W)
Time: 03:31:26
(UTC-04:00)

S-56A Canister/Altair - Pass Details

Date: 08 June 2024
Orbit: 637 x 2489 km, 38.9° (Epoch: 22 June)

Event Time Altitude Azimuth Distance (km) Brightness Sun altitude
Rises 01:24:49 0° 213° (SSW) 5,350 - -24.0°
Reaches altitude 10° 01:28:19 10° 206° (SSW) 4,567 - -24.1°
Exits shadow 01:35:51 34° 177° (S) 3,356 10.1 -24.1°
Maximum altitude 01:40:17 41° 143° (SE) 3,189 10.2 -24.1°
Drops below altitude 10° 01:53:39 10° 81° (E) 5,104 11.8 -24.1°
Sets 01:57:48 0° 75° (ENE) 6,021 12.3 -24.0°
